SCP
0 0 -0 0 0 0 0 0 0 0 0 0 0 0 0 0 0 0 0 0 0 0 -0 -0 -0 -0 -0 -0 -0 -0 -0 -0 -0 -0 -0 -0 -0 -0 0 0 0 0 0 -0 0 0 0 0 0
0 0 0 0 0 0 0 0 0 0 0 0 0 0 0 0 0 0 0 0 0 0 0 -0 -0 -0 -0 -0 -0 -0 -0 -0 -0 -0 -0 -0 -0 -0 -0 -0 0 0 0 0 0 0 0 0 0
0 0 0 0 0 0 0 0 0 0 0 0 0 0 0 0 0 0 0 0 0 0 0 0 -0 -0 -0 -0 -0 -0 -0 -0 -0 -0 -0 -0 -0 -0 -0 -0 -0 0 0 0 0 0 0 0 0
0 0 0 0 0 0 0 0 0 0 0 0 0 0 0 0 0 0 0 0 0 0 0 0 0 -0 -0 -0 -0 -0 -0 -0 -0 -0 -0 -0 -0 -0 -0 -0 -0 -0 0 0 0 0 0 0 0
0 0 0 0 0 0 0 0 0 0 0 0 0 0 0 0 0 0 0 0 0 0 0 0 0 0 0 0 0 0 0 0 0 0 0 0 0 0 0 0 0 0 0 0 0 0 0 0 0
0 0 0 0 0 0 0 0 0 0 0 0 0 0 0 0 0 0 0 0 0 0 0 0 0 0 0 0 0 0 0 0 0 0 0 0 0 0 0 0 0 0 0 0 0 0 0 0 0
0 0 0 0 0 0 0 0 0 0 0 0 0 0 0 0 0 0 0 0 0 0 0 0 0 0 0 0 0 0 0 0 0 0 0 0 0 0 0 0 0 0 0 0 0 0 0 0 0
0 0 0 0 0 0 0 0 0 0 0 0 0 0 0 0 0 0 0 0 0 0 0 0 0 0 0 0 0 0 0 0 0 0 0 0 0 0 0 0 0 0 0 0 0 0 0 0 0
0 0 0 0 0 0 0 0 0 0 0 0 0 0 0 0 0 0 0 0 0 0 0 0 0 0 0 0 0 0 0 0 0 0 0 0 0 0 0 0 0 0 0 0 0 0 0 0 0
0 0 0 0 0 0 0 0 0 0 0 0 0 0 0 0 0 0 0 0 0 0 0 0 0 0 0 0 0 0 0 0 0 0 0 0 0 0 0 0 0 0 0 0 0 0 0 0 0
0 0 0 0 0 0 0 0 0 0 0 0 0 0 0 0 0 0 0 0 0 0 0 0 0 0 0 0 0 0 0 0 0 0 0 0 0 0 0 0 0 0 0 0 0 0 0 0 0
0 0 0 0 0 0 0 0 0 0 0 0 0 0 0 0 0 0 0 0 0 0 0 0 0 0 0 0 0 0 0 0 0 0 0 0 0 0 0 0 0 0 0 0 0 0 0 0 0
0 0 0 0 0 0 0 0 0 0 0 0 0 0 0 0 0 0 0 0 0 0 0 0 0 0 0 0 0 0 0 0 0 0 0 0 0 0 0 0 0 0 0 0 0 0 0 0 0
0 0 0 0 0 0 0 0 0 0 0 0 0 0 0 0 0 0 0 0 0 0 0 0 0 0 0 0 0 0 0 0 0 0 0 0 0 0 0 0 0 0 0 0 0 0 0 0 0
0 0 0 0 0 0 0 0 0 0 0 0 0 0 0 0 0 0 0 0 0 0 0 0 0 0 0 0 0 0 0 0 0 0 0 0 0 0 0 0 0 -0 -0 -0 0 0 0 0 0
0 0 0 0 0 0 0 0 0 0 0 0 0 0 0 0 0 0 0 0 0 0 0 0 0 0 0 0 0 0 0 0 0 0 0 0 0 0 0 0 0 -0 -0 -0 -0 -0 -0 -0 -0
0 0 0 0 0 0 0 0 0 0 0 0 0 0 0 0 0 0 0 0 0 0 0 0 0 0 0 0 0 0 0 0 0 0 0 0 0 0 0 0 0 0 -0 -0 -0 -0 -0 -0 -0
0 0 0 0 0 0 0 0 0 0 0 0 0 0 0 0 0 0 0 0 0 0 0 0 0 0 0 0 0 0 0 0 0 0 0 0 0 0 0 0 0 0 -0 -0 -0 -0 -0 -0 -0
0 0 0 0 0 0 0 0 0 0 0 0 0 0 0 0 0 0 0 0 0 0 0 0 0 0 0 0 0 0 0 0 0 0 0 0 0 -0 0 0 0 0 0 0 -0 -0 -0 -0 -0
0 0 0 0 0 0 0 0 0 0 0 0 0 0 0 0 0 0 0 0 0 0 0 0 0 0 0 0 0 0 0 0 0 0 0 0 -0 0 0 0 0 0 0 0 0 0 0 -0 -0
0 0 0 0 0 0 0 0 0 0 0 0 0 0 0 0 0 0 0 0 0 0 0 0 0 0 0 0 0 0 0 0 0 0 0 0 0 0 0 0 0 0 0 0 0 0 0 0 0
0 0 0 0 0 0 0 -0 0 0 0 0 0 0 0 0 0 0 0 0 0 0 0 0 0 0 0 0 0 0 0 0 0 0 0 0 -0 0 0 0 0 0 0 0 0 0 0 0 0
0 0 0 0 0 0 0 0 0 0 0 0 0 0 0 0 0 0 0 0 0 0 0 0 0 0 0 0 0 0 0 0 0 0 0 0 0 0 0 0 0 0 0 0 0 0 0 0 0
0 0 0 0 0 0 0 0 0 0 0 0 0 0 0 0 0 0 0 0 0 0 0 0 0 0 0 0 0 0 0 0 0 0 0 0 0 0 0 0 0 0 0 0 0 0 0 0 0
0 0 0 0 0 0 0 0 0 0 0 0 0 0 0 0 0 0 0 0 0 0 0 0 0 0 0 0 0 0 0 0 0 0 0 0 0 0 0 0 0 0 0 0 0 0 0 0 0
0 0 0 0 0 0 0 0 0 0 0 0 0 0 0 0 0 0 0 0 0 0 0 0 0 0 0 0 0 0 0 0 0 0 0 0 0 0 0 0 0 0 0 0 0 0 0 0 0
0 0 0 0 0 0 0 0 0 0 0 0 0 0 0 0 0 0 0 0 0 0 0 0 0 0 0 0 0 0 0 0 0 0 0 0 0 0 0 0 0 0 0 0 0 0 0 0 0
0 0 0 0 0 0 0 0 0 0 0 0 0 0 0 0 0 0 0 0 0 0 0 0 0 0 0 0 0 0 0 0 0 0 0 0 0 0 0 0 0 0 0 0 0 0 0 0 0
0 0 0 0 0 0 0 0 0 0 0 0 0 0 0 0 0 0 0 0 0 0 0 0 0 0 0 0 0 0 0 0 0 0 0 0 0 0 0 0 0 0 0 0 0 0 0 0 0
0 0 0 0 0 0 0 0 0 0 0 0 0 0 0 0 0 0 0 0 0 0 0 0 0 0 0 0 0 0 0 0 0 0 0 0 0 0 0 0 0 0 0 0 0 0 0 0 0
Wind_Speed_500mb
13 11 7 3 6 8 1 6 1 7 5 4 12 10 10 8 6 5 21 9 2 7 12 11 7 7 10 14 12 13 12 9 13 12 13 13 14 15 18 20 23 24 23 22 24 23 24 24 26
10 10 6 5 7 5 5 5 9 8 15 32 26 19 6 4 11 13 21 10 3 3 6 7 10 9 9 14 16 18 21 22 21 22 23 23 22 23 23 22 22 24 26 27 26 27 25 27 28
6 5 2 8 6 7 7 7 10 11 39 11 10 8 12 12 21 24 23 14 7 4 3 8 8 4 7 11 13 19 22 24 26 28 28 29 29 29 28 29 29 28 28 29 29 32 31 32 32
5 3 7 7 3 6 5 9 13 25 15 14 13 7 11 22 27 28 26 16 9 4 5 3 5 7 7 5 5 10 15 20 24 29 34 38 40 38 38 36 37 36 35 35 33 33 34 36 36
8 2 7 5 5 4 7 12 40 14 11 15 23 10 8 28 30 32 25 19 14 9 6 2 3 6 9 11 12 11 11 14 17 19 25 30 37 42 46 46 45 45 43 43 43 40 40 40 39
3 4 6 4 7 5 7 14 25 18 14 17 11 17 12 29 39 36 28 20 14 14 11 9 9 8 9 11 14 16 18 21 23 26 29 31 36 38 42 45 49 53 53 51 47 48 48 48 48
9 7 6 4 6 4 10 22 14 18 20 18 11 15 11 39 46 39 32 27 25 21 17 13 9 7 7 9 11 12 14 16 19 23 27 31 36 43 46 47 48 52 54 53 54 56 55 54 54
8 10 5 6 6 9 12 17 7 17 13 12 24 14 12 45 52 44 38 33 29 25 20 17 11 7 4 5 7 9 11 14 16 19 24 27 31 36 40 46 50 51 52 54 58 60 61 60 61
6 7 3 7 9 6 15 7 12 11 10 25 28 25 16 32 55 51 44 37 32 27 23 18 15 11 5 1 5 9 13 15 17 19 22 25 27 29 32 35 41 46 49 50 53 58 63 65 67
7 6 11 9 9 5 9 13 16 11 16 22 39 45 34 32 55 58 52 45 38 31 27 21 16 10 5 3 6 11 15 17 20 23 26 30 35 38 40 41 41 41 44 46 48 53 57 61 69
3 7 6 6 14 9 7 9 14 14 11 40 49 54 45 46 58 58 50 42 38 36 32 26 20 14 10 6 5 7 10 14 18 22 25 29 32 37 42 44 44 44 45 47 48 49 53 58 62
2 4 5 7 7 6 8 8 11 37 39 30 27 36 48 55 63 64 58 52 48 43 38 30 21 17 14 11 6 6 9 13 17 21 26 29 32 36 41 46 49 51 50 49 51 54 55 55 57
4 4 8 11 16 16 18 24 17 43 43 49 43 35 46 58 62 60 54 53 52 48 42 34 27 24 20 13 8 7 9 13 18 22 27 32 37 40 43 47 52 54 54 54 52 55 60 62 62
4 9 20 14 20 18 9 10 4 16 11 26 40 46 51 61 66 63 65 61 56 52 46 37 32 26 19 12 7 7 10 15 22 28 33 38 41 42 44 49 52 54 56 58 61 61 62 64 67
1 7 10 7 4 7 8 15 20 45 35 30 34 42 51 62 66 72 66 62 59 52 44 36 30 22 17 11 10 12 15 18 22 27 32 37 41 44 49 54 57 60 62 62 63 65 69 69 66
3 7 6 5 5 4 8 21 13 17 27 36 39 46 56 64 72 69 64 60 57 50 42 37 33 27 21 17 15 14 16 18 22 26 32 37 42 46 49 54 60 62 65 68 70 72 75 78 82
11 7 7 13 14 3 11 21 13 22 31 48 50 56 64 68 74 74 70 66 61 50 45 42 37 31 26 23 18 16 16 17 21 27 33 39 45 49 53 57 62 66 68 71 74 75 77 82 85
12 8 10 13 8 9 10 33 38 48 56 71 64 66 70 76 84 80 77 71 64 57 53 49 42 35 32 26 21 17 15 16 21 28 34 40 44 49 55 62 64 67 71 73 75 79 79 81 86
7 9 14 10 9 9 20 31 40 60 47 52 65 65 70 82 79 80 78 75 70 63 59 50 44 38 34 28 22 18 16 19 24 30 35 40 44 50 58 64 67 68 72 74 76 79 81 82 82
8 8 15 13 3 12 18 35 37 39 48 62 60 60 70 68 73 78 84 81 77 70 61 55 47 42 36 31 25 21 20 23 27 32 35 40 44 52 62 67 69 69 74 73 74 75 82 86 78
10 13 10 16 11 7 15 20 15 12 22 51 56 62 56 62 66 72 90 95 85 78 69 59 50 44 38 33 27 25 23 27 32 34 37 40 47 53 61 63 66 67 71 74 73 73 73 82 83
9 12 5 5 6 8 7 26 6 13 22 15 40 44 51 54 56 62 79 98 95 84 69 59 54 49 42 35 30 28 28 32 36 42 45 46 49 53 61 65 67 68 71 73 74 76 79 79 87
13 7 9 3 6 6 7 9 8 7 16 32 17 41 46 46 47 55 64 82 97 84 74 65 58 51 42 35 31 29 30 35 40 46 51 51 53 58 63 68 71 72 74 74 75 77 81 83 87
12 9 8 7 4 4 16 19 11 12 19 17 14 34 28 28 33 44 51 62 91 88 79 72 63 53 44 35 31 29 32 38 45 49 54 57 63 67 65 69 72 73 74 76 81 82 85 86 90
5 10 9 9 4 16 10 5 29 14 21 24 21 32 26 27 35 42 52 66 80 98 90 80 68 58 46 34 33 33 34 40 46 50 55 61 67 69 72 74 73 73 75 78 82 87 92 93 91
14 17 13 17 8 31 4 17 18 31 38 30 42 45 37 34 37 40 45 55 70 96 96 84 71 57 45 37 34 32 35 38 44 50 57 63 72 75 77 79 81 83 82 82 83 89 95 96 98
11 11 5 9 5 6 12 25 13 15 19 15 37 36 43 37 38 45 46 51 67 87 100 88 72 59 49 39 31 30 33 39 45 51 58 66 72 79 84 85 85 86 88 87 88 90 94 96 98
10 11 7 3 6 11 24 43 35 21 29 23 23 45 52 35 38 42 44 52 65 77 97 85 73 62 48 36 31 29 33 40 46 52 58 67 75 81 87 86 87 88 89 89 91 96 97 96 99
8 8 6 4 8 12 13 33 10 15 20 23 28 49 42 28 38 40 45 49 61 77 96 90 74 59 45 35 28 30 33 39 46 53 63 72 79 84 87 87 86 88 89 91 95 99 99 97 93
7 23 26 13 16 10 5 49 3 4 17 18 21 30 36 33 36 43 49 54 67 77 98 91 73 57 45 36 30 31 34 40 47 56 66 75 81 83 83 83 84 84 86 93 98 101 100 92 89
Wind_Direction_500mb
142 146 143 154 64 65 153 230 249 146 156 192 162 180 164 104 162 178 148 160 266 331 324 311 291 257 245 235 228 216 206 218 231 241 254 257 262 279 285 289 285 287 293 295 297 300 300 300 297
144 161 170 128 90 81 255 244 207 199 142 120 113 117 119 150 155 167 161 169 192 273 277 297 322 277 259 252 250 240 239 240 245 250 251 257 257 254 251 257 267 277 282 285 284 286 288 290 294
152 170 224 94 112 159 190 207 162 137 150 157 134 163 162 171 168 169 184 191 195 228 282 310 305 306 299 289 265 252 257 259 264 269 277 279 276 271 267 264 263 263 266 272 278 284 284 282 283
185 150 62 77 151 210 208 163 154 142 196 202 178 157 179 176 172 176 180 180 182 139 73 6 29 27 5 350 308 291 283 278 279 279 276 275 278 279 278 278 274 269 265 265 266 272 275 277 278
173 126 58 82 246 230 240 173 165 169 185 184 177 194 201 187 186 184 182 181 166 151 162 140 0 339 329 319 319 316 311 308 302 294 290 288 282 281 282 281 279 278 278 277 274 268 267 267 269
121 75 57 241 242 227 249 188 174 186 186 175 193 158 204 193 191 186 186 185 191 213 231 248 261 278 288 295 303 311 313 311 312 308 301 296 292 291 290 284 278 275 274 275 274 273 272 268 269
128 87 204 210 251 238 216 173 190 189 178 212 196 160 218 192 189 193 194 199 211 218 227 234 239 257 291 309 312 313 312 310 306 306 302 296 293 291 291 290 289 285 280 277 273 272 271 272 272
117 91 123 239 223 260 176 169 204 186 210 203 193 211 225 203 193 195 200 203 209 214 218 215 213 229 259 314 327 342 352 351 347 341 335 327 316 306 296 290 288 287 286 284 277 273 270 270 270
122 71 216 235 166 246 170 165 191 218 206 197 208 224 224 190 196 199 203 205 211 212 215 214 213 214 206 284 345 3 7 6 2 358 354 348 337 327 317 309 302 297 290 284 282 280 275 273 271
90 112 216 197 203 259 199 200 197 190 216 232 235 236 231 206 203 204 204 206 207 209 213 217 225 231 225 268 341 356 360 360 360 356 353 350 345 340 336 330 323 317 312 307 299 289 283 278 275
138 172 215 236 239 250 202 231 204 196 235 233 237 245 226 210 207 206 205 209 211 213 216 220 223 223 232 257 312 340 346 352 350 348 344 342 340 337 334 331 328 324 319 314 309 304 299 290 281
147 207 220 282 246 223 221 214 220 218 243 263 262 258 231 214 208 205 206 210 213 216 219 222 227 235 243 250 271 321 337 333 334 334 335 334 334 335 333 333 331 330 330 326 322 315 311 305 297
165 231 243 269 260 257 263 248 246 258 264 260 257 248 231 218 213 209 213 215 215 217 222 225 229 234 234 235 257 286 311 322 328 331 332 332 333 335 334 332 331 331 331 330 328 323 318 313 308
186 276 276 286 266 254 241 279 278 255 269 260 252 247 229 219 213 209 213 214 217 222 223 223 227 229 228 234 249 286 312 326 332 330 328 328 329 331 332 331 329 328 328 329 329 329 323 319 314
241 318 314 246 242 248 211 280 232 261 273 265 252 241 228 219 214 220 222 221 223 225 226 227 231 235 243 260 284 304 314 323 324 322 323 322 324 328 331 329 326 325 325 326 324 324 322 319 315
86 63 25 231 180 245 153 272 266 261 263 262 250 235 225 221 222 222 222 223 224 224 226 229 234 238 244 253 269 286 302 314 319 321 320 320 322 325 325 323 321 321 321 322 323 323 322 320 319
359 254 241 301 210 228 177 273 234 267 266 263 251 239 228 223 222 223 222 224 226 226 230 233 235 238 238 239 252 271 291 307 316 320 319 319 320 321 322 321 320 319 320 322 323 322 321 319 317
229 239 247 241 218 211 227 258 277 270 273 266 259 249 235 230 230 226 224 223 224 225 228 232 234 234 234 234 243 257 282 303 315 316 316 315 317 320 321 319 318 319 319 320 320 319 318 316 315
169 199 234 250 239 226 248 254 262 276 258 260 257 247 246 243 240 231 227 226 224 225 227 229 231 231 231 233 241 256 279 299 310 318 315 315 317 320 318 314 313 314 315 316 317 317 317 315 317
167 207 259 283 238 194 272 263 265 259 263 263 259 251 256 252 241 233 225 223 226 229 228 227 229 231 230 233 241 257 279 297 314 317 313 313 317 318 313 310 311 313 312 314 314 314 313 313 315
204 192 228 238 335 253 302 267 236 284 252 267 255 258 259 252 246 236 224 223 225 225 225 227 230 232 233 237 246 262 281 297 307 308 314 315 317 315 309 308 308 311 312 313 311 310 308 306 304
226 209 209 285 13 259 21 294 235 243 280 258 258 245 249 248 245 242 231 224 224 225 226 227 228 230 233 238 249 266 285 299 309 315 319 318 316 313 310 309 310 311 308 307 306 305 303 302 300
224 125 143 136 216 7 237 264 217 7 273 266 258 252 247 253 250 248 241 234 229 225 223 227 230 231 234 243 255 273 290 301 313 314 314 315 317 314 311 311 310 309 306 305 303 301 298 298 297
135 96 69 64 103 263 225 201 169 184 212 257 258 256 243 247 256 253 249 238 229 224 223 225 228 231 238 250 263 277 294 305 310 312 317 319 320 313 312 310 309 308 306 304 302 298 296 295 293
103 71 325 315 343 247 136 229 258 234 229 220 227 236 247 267 252 242 237 231 227 221 223 224 225 229 235 247 267 283 295 304 310 318 319 319 314 314 315 313 311 309 308 304 302 300 298 297 292
173 168 170 241 238 288 72 244 273 220 238 221 242 258 254 242 245 242 240 239 233 222 223 225 225 227 237 248 262 281 294 305 313 314 315 317 316 317 317 316 316 314 309 305 301 298 297 296 295
182 191 172 96 138 314 242 263 283 227 250 236 239 236 243 243 245 246 238 239 235 225 225 225 225 227 236 248 264 279 296 304 309 314 316 316 316 317 317 317 316 312 309 307 303 299 296 294 294
174 161 85 2 248 251 268 273 271 219 233 228 241 228 243 237 245 241 239 244 238 230 223 224 224 228 235 246 262 279 293 302 310 313 314 313 314 315 314 315 313 311 309 307 303 300 297 294 292
143 199 198 170 164 198 268 269 205 207 201 208 231 233 222 234 244 237 250 252 237 228 220 222 221 225 234 244 258 277 290 302 309 312 313 315 316 314 313 311 310 310 309 307 303 299 297 293 289
198 197 180 201 227 242 203 268 51 314 190 204 223 224 210 253 248 249 246 239 231 224 220 218 217 222 231 241 258 276 292 302 309 314 316 319 314 312 312 311 311 310 309 307 304 300 298 290 285
Wind_Speed_850mb
13 11 7 3 6 8 1 6 1 7 5 4 12 10 10 8 6 5 21 9 2 7 12 11 7 7 10 14 12 13 12 9 13 12 13 13 14 15 18 20 23 24 23 22 24 23 24 24 26
10 10 6 5 7 5 5 5 9 8 15 32 26 19 6 4 11 13 21 10 3 3 6 7 10 9 9 14 16 18 21 22 21 22 23 23 22 23 23 22 22 24 26 27 26 27 25 27 28
6 5 2 8 6 7 7 7 10 11 39 11 10 8 12 12 21 24 23 14 7 4 3 8 8 4 7 11 13 19 22 24 26 28 28 29 29 29 28 29 29 28 28 29 29 32 31 32 32
5 3 7 7 3 6 5 9 13 25 15 14 13 7 11 22 27 28 26 16 9 4 5 3 5 7 7 5 5 10 15 20 24 29 34 38 40 38 38 36 37 36 35 35 33 33 34 36 36
8 2 7 5 5 4 7 12 40 14 11 15 23 10 8 28 30 32 25 19 14 9 6 2 3 6 9 11 12 11 11 14 17 19 25 30 37 42 46 46 45 45 43 43 43 40 40 40 39
3 4 6 4 7 5 7 14 25 18 14 17 11 17 12 29 39 36 28 20 14 14 11 9 9 8 9 11 14 16 18 21 23 26 29 31 36 38 42 45 49 53 53 51 47 48 48 48 48
9 7 6 4 6 4 10 22 14 18 20 18 11 15 11 39 46 39 32 27 25 21 17 13 9 7 7 9 11 12 14 16 19 23 27 31 36 43 46 47 48 52 54 53 54 56 55 54 54
8 10 5 6 6 9 12 17 7 17 13 12 24 14 12 45 52 44 38 33 29 25 20 17 11 7 4 5 7 9 11 14 16 19 24 27 31 36 40 46 50 51 52 54 58 60 61 60 61
6 7 3 7 9 6 15 7 12 11 10 25 28 25 16 32 55 51 44 37 32 27 23 18 15 11 5 1 5 9 13 15 17 19 22 25 27 29 32 35 41 46 49 50 53 58 63 65 67
7 6 11 9 9 5 9 13 16 11 16 22 39 45 34 32 55 58 52 45 38 31 27 21 16 10 5 3 6 11 15 17 20 23 26 30 35 38 40 41 41 41 44 46 48 53 57 61 69
3 7 6 6 14 9 7 9 14 14 11 40 49 54 45 46 58 58 50 42 38 36 32 26 20 14 10 6 5 7 10 14 18 22 25 29 32 37 42 44 44 44 45 47 48 49 53 58 62
2 4 5 7 7 6 8 8 11 37 39 30 27 36 48 55 63 64 58 52 48 43 38 30 21 17 14 11 6 6 9 13 17 21 26 29 32 36 41 46 49 51 50 49 51 54 55 55 57
4 4 8 11 16 16 18 24 17 43 43 49 43 35 46 58 62 60 54 53 52 48 42 34 27 24 20 13 8 7 9 13 18 22 27 32 37 40 43 47 52 54 54 54 52 55 60 62 62
4 9 20 14 20 18 9 10 4 16 11 26 40 46 51 61 66 63 65 61 56 52 46 37 32 26 19 12 7 7 10 15 22 28 33 38 41 42 44 49 52 54 56 58 61 61 62 64 67
1 7 10 7 4 7 8 15 20 45 35 30 34 42 51 62 66 72 66 62 59 52 44 36 30 22 17 11 10 12 15 18 22 27 32 37 41 44 49 54 57 60 62 62 63 65 69 69 66
3 7 6 5 5 4 8 21 13 17 27 36 39 46 56 64 72 69 64 60 57 50 42 37 33 27 21 17 15 14 16 18 22 26 32 37 42 46 49 54 60 62 65 68 70 72 75 78 82
11 7 7 13 14 3 11 21 13 22 31 48 50 56 64 68 74 74 70 66 61 50 45 42 37 31 26 23 18 16 16 17 21 27 33 39 45 49 53 57 62 66 68 71 74 75 77 82 85
12 8 10 13 8 9 10 33 38 48 56 71 64 66 70 76 84 80 77 71 64 57 53 49 42 35 32 26 21 17 15 16 21 28 34 40 44 49 55 62 64 67 71 73 75 79 79 81 86
7 9 14 10 9 9 20 31 40 60 47 52 65 65 70 82 79 80 78 75 70 63 59 50 44 38 34 28 22 18 16 19 24 30 35 40 44 50 58 64 67 68 72 74 76 79 81 82 82
8 8 15 13 3 12 18 35 37 39 48 62 60 60 70 68 73 78 84 81 77 70 61 55 47 42 36 31 25 21 20 23 27 32 35 40 44 52 62 67 69 69 74 73 74 75 82 86 78
10 13 10 16 11 7 15 20 15 12 22 51 56 62 56 62 66 72 90 95 85 78 69 59 50 44 38 33 27 25 23 27 32 34 37 40 47 53 61 63 66 67 71 74 73 73 73 82 83
9 12 5 5 6 8 7 26 6 13 22 15 40 44 51 54 56 62 79 98 95 84 69 59 54 49 42 35 30 28 28 32 36 42 45 46 49 53 61 65 67 68 71 73 74 76 79 79 87
13 7 9 3 6 6 7 9 8 7 16 32 17 41 46 46 47 55 64 82 97 84 74 65 58 51 42 35 31 29 30 35 40 46 51 51 53 58 63 68 71 72 74 74 75 77 81 83 87
12 9 8 7 4 4 16 19 11 12 19 17 14 34 28 28 33 44 51 62 91 88 79 72 63 53 44 35 31 29 32 38 45 49 54 57 63 67 65 69 72 73 74 76 81 82 85 86 90
5 10 9 9 4 16 10 5 29 14 21 24 21 32 26 27 35 42 52 66 80 98 90 80 68 58 46 34 33 33 34 40 46 50 55 61 67 69 72 74 73 73 75 78 82 87 92 93 91
14 17 13 17 8 31 4 17 18 31 38 30 42 45 37 34 37 40 45 55 70 96 96 84 71 57 45 37 34 32 35 38 44 50 57 63 72 75 77 79 81 83 82 82 83 89 95 96 98
11 11 5 9 5 6 12 25 13 15 19 15 37 36 43 37 38 45 46 51 67 87 100 88 72 59 49 39 31 30 33 39 45 51 58 66 72 79 84 85 85 86 88 87 88 90 94 96 98
10 11 7 3 6 11 24 43 35 21 29 23 23 45 52 35 38 42 44 52 65 77 97 85 73 62 48 36 31 29 33 40 46 52 58 67 75 81 87 86 87 88 89 89 91 96 97 96 99
8 8 6 4 8 12 13 33 10 15 20 23 28 49 42 28 38 40 45 49 61 77 96 90 74 59 45 35 28 30 33 39 46 53 63 72 79 84 87 87 86 88 89 91 95 99 99 97 93
7 23 26 13 16 10 5 49 3 4 17 18 21 30 36 33 36 43 49 54 67 77 98 91 73 57 45 36 30 31 34 40 47 56 66 75 81 83 83 83 84 84 86 93 98 101 100 92 89
Wind_Direction_850mb
142 146 143 154 64 65 153 230 249 146 156 192 162 180 164 104 162 178 148 160 266 331 324 311 291 257 245 235 228 216 206 218 231 241 254 257 262 279 285 289 285 287 293 295 297 300 300 300 297
144 161 170 128 90 81 255 244 207 199 142 120 113 117 119 150 155 167 161 169 192 273 277 297 322 277 259 252 250 240 239 240 245 250 251 257 257 254 251 257 267 277 282 285 284 286 288 290 294
152 170 224 94 112 159 190 207 162 137 150 157 134 163 162 171 168 169 184 191 195 228 282 310 305 306 299 289 265 252 257 259 264 269 277 279 276 271 267 264 263 263 266 272 278 284 284 282 283
185 150 62 77 151 210 208 163 154 142 196 202 178 157 179 176 172 176 180 180 182 139 73 6 29 27 5 350 308 291 283 278 279 279 276 275 278 279 278 278 274 269 265 265 266 272 275 277 278
173 126 58 82 246 230 240 173 165 169 185 184 177 194 201 187 186 184 182 181 166 151 162 140 0 339 329 319 319 316 311 308 302 294 290 288 282 281 282 281 279 278 278 277 274 268 267 267 269
121 75 57 241 242 227 249 188 174 186 186 175 193 158 204 193 191 186 186 185 191 213 231 248 261 278 288 295 303 311 313 311 312 308 301 296 292 291 290 284 278 275 274 275 274 273 272 268 269
128 87 204 210 251 238 216 173 190 189 178 212 196 160 218 192 189 193 194 199 211 218 227 234 239 257 291 309 312 313 312 310 306 306 302 296 293 291 291 290 289 285 280 277 273 272 271 272 272
117 91 123 239 223 260 176 169 204 186 210 203 193 211 225 203 193 195 200 203 209 214 218 215 213 229 259 314 327 342 352 351 347 341 335 327 316 306 296 290 288 287 286 284 277 273 270 270 270
122 71 216 235 166 246 170 165 191 218 206 197 208 224 224 190 196 199 203 205 211 212 215 214 213 214 206 284 345 3 7 6 2 358 354 348 337 327 317 309 302 297 290 284 282 280 275 273 271
90 112 216 197 203 259 199 200 197 190 216 232 235 236 231 206 203 204 204 206 207 209 213 217 225 231 225 268 341 356 360 360 360 356 353 350 345 340 336 330 323 317 312 307 299 289 283 278 275
138 172 215 236 239 250 202 231 204 196 235 233 237 245 226 210 207 206 205 209 211 213 216 220 223 223 232 257 312 340 346 352 350 348 344 342 340 337 334 331 328 324 319 314 309 304 299 290 281
147 207 220 282 246 223 221 214 220 218 243 263 262 258 231 214 208 205 206 210 213 216 219 222 227 235 243 250 271 321 337 333 334 334 335 334 334 335 333 333 331 330 330 326 322 315 311 305 297
165 231 243 269 260 257 263 248 246 258 264 260 257 248 231 218 213 209 213 215 215 217 222 225 229 234 234 235 257 286 311 322 328 331 332 332 333 335 334 332 331 331 331 330 328 323 318 313 308
186 276 276 286 266 254 241 279 278 255 269 260 252 247 229 219 213 209 213 214 217 222 223 223 227 229 228 234 249 286 312 326 332 330 328 328 329 331 332 331 329 328 328 329 329 329 323 319 314
241 318 314 246 242 248 211 280 232 261 273 265 252 241 228 219 214 220 222 221 223 225 226 227 231 235 243 260 284 304 314 323 324 322 323 322 324 328 331 329 326 325 325 326 324 324 322 319 315
86 63 25 231 180 245 153 272 266 261 263 262 250 235 225 221 222 222 222 223 224 224 226 229 234 238 244 253 269 286 302 314 319 321 320 320 322 325 325 323 321 321 321 322 323 323 322 320 319
359 254 241 301 210 228 177 273 234 267 266 263 251 239 228 223 222 223 222 224 226 226 230 233 235 238 238 239 252 271 291 307 316 320 319 319 320 321 322 321 320 319 320 322 323 322 321 319 317
229 239 247 241 218 211 227 258 277 270 273 266 259 249 235 230 230 226 224 223 224 225 228 232 234 234 234 234 243 257 282 303 315 316 316 315 317 320 321 319 318 319 319 320 320 319 318 316 315
169 199 234 250 239 226 248 254 262 276 258 260 257 247 246 243 240 231 227 226 224 225 227 229 231 231 231 233 241 256 279 299 310 318 315 315 317 320 318 314 313 314 315 316 317 317 317 315 317
167 207 259 283 238 194 272 263 265 259 263 263 259 251 256 252 241 233 225 223 226 229 228 227 229 231 230 233 241 257 279 297 314 317 313 313 317 318 313 310 311 313 312 314 314 314 313 313 315
204 192 228 238 335 253 302 267 236 284 252 267 255 258 259 252 246 236 224 223 225 225 225 227 230 232 233 237 246 262 281 297 307 308 314 315 317 315 309 308 308 311 312 313 311 310 308 306 304
226 209 209 285 13 259 21 294 235 243 280 258 258 245 249 248 245 242 231 224 224 225 226 227 228 230 233 238 249 266 285 299 309 315 319 318 316 313 310 309 310 311 308 307 306 305 303 302 300
224 125 143 136 216 7 237 264 217 7 273 266 258 252 247 253 250 248 241 234 229 225 223 227 230 231 234 243 255 273 290 301 313 314 314 315 317 314 311 311 310 309 306 305 303 301 298 298 297
135 96 69 64 103 263 225 201 169 184 212 257 258 256 243 247 256 253 249 238 229 224 223 225 228 231 238 250 263 277 294 305 310 312 317 319 320 313 312 310 309 308 306 304 302 298 296 295 293
103 71 325 315 343 247 136 229 258 234 229 220 227 236 247 267 252 242 237 231 227 221 223 224 225 229 235 247 267 283 295 304 310 318 319 319 314 314 315 313 311 309 308 304 302 300 298 297 292
173 168 170 241 238 288 72 244 273 220 238 221 242 258 254 242 245 242 240 239 233 222 223 225 225 227 237 248 262 281 294 305 313 314 315 317 316 317 317 316 316 314 309 305 301 298 297 296 295
182 191 172 96 138 314 242 263 283 227 250 236 239 236 243 243 245 246 238 239 235 225 225 225 225 227 236 248 264 279 296 304 309 314 316 316 316 317 317 317 316 312 309 307 303 299 296 294 294
174 161 85 2 248 251 268 273 271 219 233 228 241 228 243 237 245 241 239 244 238 230 223 224 224 228 235 246 262 279 293 302 310 313 314 313 314 315 314 315 313 311 309 307 303 300 297 294 292
143 199 198 170 164 198 268 269 205 207 201 208 231 233 222 234 244 237 250 252 237 228 220 222 221 225 234 244 258 277 290 302 309 312 313 315 316 314 313 311 310 310 309 307 303 299 297 293 289
198 197 180 201 227 242 203 268 51 314 190 204 223 224 210 253 248 249 246 239 231 224 220 218 217 222 231 241 258 276 292 302 309 314 316 319 314 312 312 311 311 310 309 307 304 300 298 290 285